Cairo, Egypt

11:58 AM EET on December 13, 2017 (GMT +0200)
Cairo International Airport

Weather History for HECA - October, 2012

Change the Weather History Date:

Friday, October 26, 2012

  Actual Average Record
Temperature  
Mean Temperature 76 °F -  
Max Temperature 83 °F 75 °F 93 °F (2003)
Min Temperature 68 °F 58 °F 57 °F (2000)
Cooling Degree Days 10    
Growing Degree Days 26 (Base 50)    
Moisture  
Dew Point 58 °F    
Average Humidity 57    
Maximum Humidity 78    
Minimum Humidity 29    
Precipitation  
Precipitation 0.00 in 0.00 in - ()
Sea Level Pressure  
Sea Level Pressure 29.90 in    
Wind  
Wind Speed 6 mph ()    
Max Wind Speed 13 mph    
Max Gust Speed -    
Visibility 6.2 miles    
Events      
Averages and records for this station are not official NWS values.
T = Trace of Precipitation, MM = Missing Value Source: Averaged Metar Reports

Daily Weather History Graph

Daily Weather History Graph

Search for Another Location

Airport or City:

Trip Planner

Search our weather history database for the weather conditions in past years. The results will help you decide how hot, cold, wet, or windy it might be!

Date:

Astronomy

Oct. 26, 2012 Rise Set
Actual Time 6:04 AM EET 5:12 PM EET
Civil Twilight 5:39 AM EET 5:36 PM EET
Nautical Twilight 5:11 AM EET 6:04 PM EET
Astronomical Twilight 4:43 AM EET 6:32 PM EET
Moon 3:07 PM EET (10/26) 2:52 AM EET (10/26)
Length of Visible Light 11h 57m
Length of Day
11h 08m
Waxing Gibbous, 89% of the Moon is Illuminated
Oct 26
Waxing Gibbous
Oct 29
Full
Nov 7
Last Quarter
Nov 14
New
Nov 20
First Quarter

Hourly Weather History & Observations

Time (EET) Temp. Heat Index Dew Point Humidity Pressure Visibility Wind Dir Wind Speed Gust Speed Precip Events Conditions
12:00 AM 69.8 °F - 60.8 °F 73% 29.92 in - East 6.9 mph - N/A   Clear
12:30 AM 69.8 °F - 60.8 °F 73% 29.92 in - East 6.9 mph - N/A   Clear
1:00 AM 69.8 °F - 60.8 °F 73% 29.89 in - East 6.9 mph - N/A   Clear
1:30 AM 69.8 °F - 60.8 °F 73% 29.89 in - East 6.9 mph - N/A   Clear
2:00 AM 70 °F - 61 °F 66% 29.91 in 6 mi North 6.9 mph - -  
2:00 AM 69.8 °F - 60.8 °F 73% 29.89 in - East 6.9 mph - N/A   Clear
2:30 AM 69.8 °F - 60.8 °F 73% 29.89 in - East 6.9 mph - N/A   Clear
3:00 AM 69.8 °F - 60.8 °F 73% 29.89 in - East 6.9 mph - N/A   Clear
3:30 AM 68.0 °F - 60.8 °F 78% 29.89 in - ESE 8.1 mph - N/A   Clear
4:00 AM 68.0 °F - 60.8 °F 78% 29.89 in - ESE 8.1 mph - N/A   Clear
4:30 AM 68.0 °F - 60.8 °F 78% 29.89 in - ESE 9.2 mph - N/A   Clear
5:00 AM 68.0 °F - 60.8 °F 78% 29.89 in - ESE 8.1 mph - N/A   Clear
5:30 AM 69.8 °F - 60.8 °F 73% 29.89 in - ESE 8.1 mph - N/A   Clear
6:00 AM 69.8 °F - 60.8 °F 73% 29.89 in - ESE 5.8 mph - N/A   Clear
6:30 AM 69.8 °F - 60.8 °F 73% 29.89 in - ESE 5.8 mph - N/A   Clear
7:00 AM 69.8 °F - 60.8 °F 73% 29.89 in - East 6.9 mph - N/A   Clear
7:30 AM 71.6 °F - 60.8 °F 69% 29.92 in - East 5.8 mph - N/A   Clear
8:00 AM 73 °F - 61 °F 57% 29.93 in 6 mi ESE 4.6 mph - -  
8:00 AM 73.4 °F - 60.8 °F 65% 29.92 in - ESE 4.6 mph - N/A   Clear
8:30 AM 75.2 °F - 59.0 °F 57% 29.92 in - ENE 2.3 mph - N/A   Clear
9:00 AM 75.2 °F - 59.0 °F 57% 29.92 in - NE 4.6 mph - N/A   Clear
9:30 AM 78.8 °F - 59.0 °F 51% 29.92 in - ESE 2.3 mph - N/A   Clear
10:00 AM 78.8 °F - 57.2 °F 47% 29.92 in - NNE 3.5 mph - N/A   Clear
10:30 AM 80.6 °F 80.5 °F 55.4 °F 42% 29.92 in - NNW 4.6 mph - N/A   Clear
11:00 AM 80.6 °F 81.1 °F 59.0 °F 48% 29.92 in 6.2 mi West 4.6 mph - N/A   Mostly Cloudy
11:30 AM 78.8 °F - 53.6 °F 42% 29.92 in 6.2 mi NW 6.9 mph - N/A   Mostly Cloudy
12:00 PM 80.6 °F 80.3 °F 53.6 °F 39% 29.89 in 6.2 mi West 6.9 mph - N/A   Mostly Cloudy
12:30 PM 82.4 °F - 48.2 °F 30% 29.89 in 6.2 mi WSW 9.2 mph - N/A   Mostly Cloudy
1:00 PM 82.4 °F - 50.0 °F 32% 29.89 in 6.2 mi West 4.6 mph - N/A   Scattered Clouds
1:30 PM 80.6 °F - 50.0 °F 34% 29.89 in 6.2 mi West 9.2 mph - N/A   Scattered Clouds
2:00 PM 82 °F - 55 °F 29% 29.88 in 6 mi NW 8.1 mph - -   Partly Cloudy
2:00 PM 82.4 °F 81.7 °F 55.4 °F 39% 29.89 in 6.2 mi NW 8.1 mph - N/A   Scattered Clouds
2:30 PM 80.6 °F - 50.0 °F 34% 29.86 in 6.2 mi NNW 9.2 mph - N/A   Scattered Clouds
3:00 PM 80.6 °F - 51.8 °F 37% 29.86 in 6.2 mi WNW 6.9 mph - N/A   Scattered Clouds
3:30 PM 80.6 °F - 51.8 °F 37% 29.86 in 6.2 mi WNW 6.9 mph - N/A   Scattered Clouds
4:30 PM 80.6 °F - 51.8 °F 37% 29.86 in 6.2 mi NW 6.9 mph - N/A   Scattered Clouds
5:00 PM 80.6 °F 80.8 °F 57.2 °F 45% 29.86 in 6.2 mi WNW 4.6 mph - N/A   Scattered Clouds
5:30 PM 78.8 °F - 51.8 °F 39% 29.89 in 6.2 mi NNW 6.9 mph - N/A   Scattered Clouds
6:30 PM 78.8 °F - 51.8 °F 39% 29.89 in - North 6.9 mph - N/A   Clear
7:00 PM 78.8 °F - 51.8 °F 39% 29.89 in - North 6.9 mph - N/A   Clear
7:30 PM 75.2 °F - 59.0 °F 57% 29.92 in - North 12.7 mph - N/A   Clear
8:00 PM 74 °F - 58 °F 48% 29.94 in 6 mi NNE 9.2 mph - -  
8:00 PM 73.4 °F - 59.0 °F 61% 29.92 in - North - - N/A   Clear
8:30 PM 73.4 °F - 59.0 °F 61% 29.92 in - NNE 9.2 mph - N/A   Clear
9:00 PM 71.6 °F - 59.0 °F 64% 29.95 in - NE 9.2 mph - N/A   Clear
9:30 PM 71.6 °F - 59.0 °F 64% 29.95 in - NE 9.2 mph - N/A   Clear
10:00 PM 71.6 °F - 59.0 °F 64% 29.95 in - ENE 9.2 mph - N/A   Clear
10:30 PM 71.6 °F - 59.0 °F 64% 29.95 in - ENE 9.2 mph - N/A   Clear
11:00 PM 71.6 °F - 59.0 °F 64% 29.95 in - ENE 10.4 mph - N/A   Clear
11:30 PM 71.6 °F - 59.0 °F 64% 29.95 in - ENE 10.4 mph - N/A   Clear